Wind_Speed
87 82 76 77 73 69 64 62 57 54 53 51 48 46 43 41 34 26 31 27 24 22 21 19 18 17 17 19 20 22 19 15
86 85 81 78 79 75 69 64 60 55 54 55 52 51 50 44 37 33 33 35 30 23 23 20 17 17 13 16 18 19 21 20
94 85 81 83 81 80 78 74 73 68 62 59 53 53 48 45 43 39 38 39 36 29 25 26 22 21 20 16 19 17 17 18
103 93 88 84 83 83 80 79 77 74 71 70 62 56 49 49 50 47 45 40 33 33 26 32 26 25 24 24 22 19 18 17
110 103 96 92 85 80 84 80 79 79 77 72 68 64 56 57 54 49 47 42 39 35 33 33 31 30 27 26 28 24 23 22
113 109 106 102 99 89 84 86 83 79 78 75 73 68 64 60 55 50 47 45 45 42 39 38 34 32 34 30 29 30 27 27
118 111 112 110 106 100 90 88 85 83 80 77 75 71 68 60 58 54 50 48 47 46 40 39 38 35 35 34 32 33 35 33
127 124 119 114 110 105 101 94 86 85 82 78 75 75 72 64 60 59 54 52 50 50 48 44 43 38 36 36 39 38 39 40
132 131 125 121 116 111 106 103 95 86 85 81 79 80 76 72 63 60 59 56 55 53 51 47 45 42 38 39 41 41 41 42
126 127 120 114 113 113 109 105 101 94 89 84 83 83 79 73 69 64 57 57 57 55 54 53 49 46 43 44 45 43 41 45
132 125 123 111 111 113 112 106 105 99 95 92 87 84 82 78 75 67 62 60 60 58 56 55 52 50 46 47 47 46 43 46
133 125 121 120 111 114 113 110 106 101 98 94 90 88 83 79 74 68 64 62 62 61 60 58 55 53 51 51 50 50 49 46
136 130 131 126 121 114 113 113 109 104 100 98 94 89 89 84 78 75 75 68 65 61 62 60 59 56 55 55 54 52 50 49
136 136 132 130 123 119 113 115 116 112 109 105 99 95 93 87 82 76 74 72 68 68 66 64 62 62 60 58 56 54 52 50
125 138 137 132 128 124 117 114 112 114 114 111 105 99 97 92 88 85 81 77 75 70 69 69 67 66 61 59 59 57 57 53
122 130 139 132 129 127 120 112 111 112 111 110 108 104 99 96 97 93 89 86 80 77 74 73 69 64 61 64 63 63 62 59
123 123 131 137 130 125 122 117 111 114 111 111 110 110 106 99 96 97 93 89 86 84 80 77 73 68 62 63 64 64 66 63
117 122 123 134 133 129 124 122 116 114 114 111 109 109 107 106 101 102 97 92 91 88 83 80 76 72 67 66 63 62 65 62
114 120 122 125 132 130 129 124 121 117 114 114 110 107 106 107 106 104 102 97 95 92 89 84 81 77 73 72 70 66 62 64
Wind_Direction
235 236 235 233 236 238 239 243 244 247 250 251 251 251 250 252 253 254 267 267 275 286 287 303 311 328 347 351 359 12 1 335
229 233 234 236 235 236 237 240 242 243 247 247 245 245 248 252 255 253 260 264 266 272 280 286 293 311 326 344 348 360 7 7
227 232 235 238 237 237 238 239 244 244 244 244 244 247 250 252 254 250 250 256 261 260 270 273 278 293 305 316 331 336 349 4
229 229 234 236 236 234 236 239 241 242 243 245 247 250 250 247 244 245 248 255 254 257 259 265 271 276 288 300 308 318 323 332
229 227 231 234 233 233 236 236 237 240 241 243 247 249 249 248 247 250 253 256 251 255 250 259 270 271 275 289 295 301 309 313
229 228 228 233 233 231 232 237 237 238 240 243 244 245 247 250 250 250 249 244 243 246 250 254 261 272 276 279 288 291 294 302
231 229 227 231 234 231 231 233 236 236 237 238 241 242 244 246 247 246 244 243 248 249 247 252 254 260 269 279 280 285 291 295
230 229 228 229 233 231 232 233 232 235 234 234 236 239 241 241 242 245 245 245 247 247 247 250 254 255 263 269 275 282 286 291
224 225 226 226 229 230 230 232 235 234 234 234 234 237 239 241 241 242 246 246 247 249 250 250 254 252 260 264 270 275 279 286
229 232 228 226 225 229 229 231 233 235 235 233 233 236 238 240 238 235 240 247 249 250 252 253 253 254 259 266 268 267 273 280
227 225 233 228 224 227 229 231 231 234 236 234 233 236 237 236 236 235 235 239 247 249 251 252 251 251 260 267 266 266 269 274
225 221 224 230 227 226 229 229 231 231 233 235 235 234 236 237 234 232 238 240 244 248 250 250 251 252 257 262 263 266 269 269
222 223 222 224 227 222 225 228 230 232 232 234 235 233 235 237 237 238 242 243 245 249 251 252 253 256 258 259 262 266 270 268
219 223 223 224 226 227 223 224 228 231 231 234 235 236 235 238 240 240 242 243 244 248 252 253 254 256 257 261 261 265 268 268
219 222 222 222 223 227 224 222 224 230 230 231 234 236 239 238 242 242 242 244 245 249 252 252 252 254 258 262 263 262 265 268
218 220 223 222 224 225 228 224 222 226 229 230 234 237 238 244 241 242 244 245 247 248 250 253 254 255 257 258 260 262 265 266
216 219 221 223 221 226 228 229 224 225 230 230 231 235 236 238 244 244 242 245 247 248 249 253 255 255 256 257 258 260 263 264
217 217 220 221 222 222 224 228 230 226 226 230 231 233 236 238 240 245 245 244 246 248 249 250 253 253 255 255 256 257 261 263
217 217 218 221 222 223 224 225 226 230 228 229 231 232 236 239 239 241 244 245 246 248 249 250 253 254 255 256 258 257 259 260
Height
10730 10738 10748 10753 10760 10767 10774 10779 10786 10791 10795 10801 10806 10808 10810 10813 10818 10821 10822 10823 10824 10825 10825 10824 10823 10823 10822 10820 10818 10817 10814 10812
10710 10717 10732 10739 10748 10757 10764 10769 10774 10781 10785 10789 10793 10796 10800 10806 10811 10815 10816 10816 10819 10821 10821 10821 10821 10820 10819 10817 10816 10815 10814 10812
10698 10709 10718 10726 10735 10745 10750 10757 10760 10770 10774 10776 10782 10787 10794 10799 10804 10807 10808 10809 10813 10816 10816 10817 10817 10816 10816 10815 10814 10813 10811 10810
10683 10692 10700 10708 10718 10728 10734 10742 10748 10755 10759 10762 10773 10782 10789 10791 10791 10796 10800 10804 10807 10810 10811 10810 10813 10811 10812 10811 10810 10809 10808 10807
10657 10674 10679 10689 10698 10709 10715 10724 10732 10739 10744 10755 10763 10770 10776 10775 10781 10790 10794 10797 10800 10802 10803 10804 10806 10807 10807 10807 10806 10805 10804 10804
10629 10647 10659 10666 10672 10690 10698 10705 10714 10725 10734 10744 10749 10757 10759 10765 10773 10780 10784 10787 10791 10793 10795 10797 10799 10800 10801 10801 10801 10800 10799 10798
10606 10623 10633 10640 10650 10669 10681 10686 10699 10709 10721 10729 10736 10742 10744 10756 10761 10767 10772 10777 10781 10784 10788 10789 10791 10794 10794 10795 10796 10794 10794 10793
10566 10583 10599 10620 10628 10650 10662 10667 10681 10694 10706 10714 10723 10725 10730 10741 10750 10754 10762 10767 10771 10773 10778 10780 10783 10785 10788 10788 10788 10788 10788 10786
10515 10533 10559 10583 10604 10621 10639 10649 10664 10677 10688 10701 10707 10707 10716 10728 10740 10744 10750 10755 10758 10763 10768 10772 10774 10776 10779 10780 10781 10782 10782 10781
10525 10537 10550 10569 10590 10602 10621 10634 10646 10657 10670 10679 10689 10692 10703 10715 10724 10730 10739 10743 10747 10753 10757 10761 10764 10767 10769 10771 10773 10774 10774 10773
10494 10524 10532 10557 10576 10590 10605 10619 10628 10642 10649 10659 10671 10679 10687 10697 10705 10722 10728 10730 10733 10741 10745 10749 10753 10757 10759 10762 10763 10765 10766 10765
10469 10499 10508 10529 10553 10570 10584 10601 10610 10623 10632 10646 10655 10666 10675 10682 10694 10706 10713 10717 10724 10728 10731 10735 10742 10746 10749 10751 10752 10755 10756 10757
10449 10470 10482 10488 10513 10538 10562 10580 10594 10607 10619 10626 10636 10649 10654 10663 10678 10693 10699 10707 10712 10715 10717 10723 10729 10734 10737 10740 10741 10744 10746 10748
10430 10444 10464 10480 10495 10514 10537 10553 10568 10582 10598 10605 10616 10627 10637 10652 10664 10676 10685 10690 10696 10700 10707 10711 10715 10719 10723 10727 10730 10733 10735 10736
10404 10420 10438 10455 10470 10485 10506 10531 10550 10561 10575 10587 10598 10610 10620 10639 10648 10656 10665 10672 10678 10687 10694 10696 10702 10706 10712 10714 10717 10719 10721 10724
10379 10397 10415 10442 10457 10470 10488 10514 10535 10545 10554 10572 10583 10594 10603 10611 10625 10635 10647 10654 10664 10670 10677 10681 10689 10694 10699 10700 10702 10705 10708 10712
10358 10375 10402 10416 10437 10463 10479 10492 10513 10527 10537 10549 10564 10569 10580 10595 10601 10611 10627 10639 10645 10652 10663 10667 10673 10680 10686 10686 10688 10692 10695 10700
10340 10361 10381 10397 10417 10433 10449 10472 10488 10503 10516 10527 10544 10554 10563 10577 10587 10591 10606 10620 10625 10634 10644 10652 10658 10664 10670 10672 10675 10679 10682 10688
10322 10342 10358 10372 10396 10413 10430 10443 10461 10479 10496 10508 10521 10536 10546 10554 10567 10577 10584 10596 10607 10615 10625 10634 10641 10648 10652 10655 10658 10665 10672 10676